Time,TemperatureF,DewpointF,PressureIn,WindDirection,WindDirectionDegrees,WindSpeedMPH,WindSpeedGustMPH,Humidity,HourlyPrecipIn,Conditions,Clouds,dailyrainin,SoftwareType,DateUTC
2013-02-22 00:01:00,46.2,39.7,30.20,SSE,151,0.0,3.0,78,0.00,,,0.00,meteohub,2013-02-22 08:01:00,
2013-02-22 00:06:00,45.9,39.7,30.21,SSE,151,0.0,0.0,79,0.00,,,0.00,meteohub,2013-02-22 08:06:00,
2013-02-22 00:11:00,46.0,39.6,30.21,SSE,151,0.0,1.0,78,0.00,,,0.00,meteohub,2013-02-22 08:11:00,
2013-02-22 00:16:00,46.9,39.7,30.21,SSE,151,0.0,1.0,76,0.00,,,0.00,meteohub,2013-02-22 08:16:00,
2013-02-22 00:21:00,46.9,39.4,30.21,SSE,151,0.0,1.0,75,0.00,,,0.00,meteohub,2013-02-22 08:21:00,
2013-02-22 00:26:00,45.9,39.4,30.21,SSE,151,0.0,1.0,78,0.00,,,0.00,meteohub,2013-02-22 08:26:00,
2013-02-22 00:32:00,45.5,39.4,30.21,SSE,151,0.0,1.0,79,0.00,,,0.00,meteohub,2013-02-22 08:32:00,
2013-02-22 00:37:00,45.3,39.6,30.21,SSW,212,3.0,3.0,80,0.00,,,0.00,meteohub,2013-02-22 08:37:00,
2013-02-22 00:42:00,46.4,42.1,30.22,SSW,207,1.0,3.0,85,0.00,,,0.00,meteohub,2013-02-22 08:42:00,
2013-02-22 00:47:00,46.6,42.6,30.21,SSW,211,1.0,4.0,86,0.00,,,0.00,meteohub,2013-02-22 08:47:00,
2013-02-22 00:52:00,46.6,43.0,30.22,SSW,202,4.0,4.0,87,0.00,,,0.00,meteohub,2013-02-22 08:52:00,
2013-02-22 00:57:00,46.6,43.2,30.22,South,177,1.0,5.0,88,0.00,,,0.00,meteohub,2013-02-22 08:57:00,
2013-02-22 01:01:00,46.4,43.3,30.22,South,181,2.0,5.0,89,0.00,,,0.00,meteohub,2013-02-22 09:01:00,
2013-02-22 01:06:00,45.9,42.4,30.22,South,170,0.0,5.0,88,0.00,,,0.00,meteohub,2013-02-22 09:06:00,
2013-02-22 01:11:00,45.1,42.1,30.22,South,169,0.0,4.0,89,0.00,,,0.00,meteohub,2013-02-22 09:11:00,
2013-02-22 01:16:00,45.0,42.3,30.22,South,170,0.0,3.0,90,0.00,,,0.00,meteohub,2013-02-22 09:16:00,
2013-02-22 01:21:00,44.6,41.5,30.22,South,170,0.0,2.0,89,0.00,,,0.00,meteohub,2013-02-22 09:21:00,
2013-02-22 01:27:00,44.6,42.1,30.22,South,170,1.0,1.0,91,0.00,,,0.00,meteohub,2013-02-22 09:27:00,
2013-02-22 01:32:00,45.0,42.3,30.22,South,170,1.0,2.0,90,0.00,,,0.00,meteohub,2013-02-22 09:32:00,
2013-02-22 01:37:00,44.8,42.1,30.22,South,170,0.0,2.0,90,0.00,,,0.00,meteohub,2013-02-22 09:37:00,
2013-02-22 01:42:00,44.2,41.5,30.22,South,170,0.0,2.0,90,0.00,,,0.00,meteohub,2013-02-22 09:42:00,
2013-02-22 01:47:00,44.2,41.7,30.22,South,170,0.0,2.0,91,0.00,,,0.00,meteohub,2013-02-22 09:47:00,
2013-02-22 01:52:00,44.2,41.7,30.22,South,170,0.0,2.0,91,0.00,,,0.00,meteohub,2013-02-22 09:52:00,
2013-02-22 01:57:00,44.2,41.7,30.22,South,170,0.0,0.0,91,0.00,,,0.00,meteohub,2013-02-22 09:57:00,
2013-02-22 02:02:00,44.2,41.7,30.22,South,170,0.0,0.0,91,0.00,,,0.00,meteohub,2013-02-22 10:02:00,
2013-02-22 02:07:00,43.9,41.4,30.22,South,170,0.0,0.0,91,0.00,,,0.00,meteohub,2013-02-22 10:07:00,
2013-02-22 02:12:00,43.7,41.5,30.22,South,170,1.0,0.0,92,0.00,,,0.00,meteohub,2013-02-22 10:12:00,
2013-02-22 02:17:00,44.1,41.9,30.22,South,170,1.0,2.0,92,0.00,,,0.00,meteohub,2013-02-22 10:17:00,
2013-02-22 02:22:00,44.1,41.5,30.22,South,170,0.0,2.0,91,0.00,,,0.00,meteohub,2013-02-22 10:22:00,
2013-02-22 02:27:00,43.9,41.4,30.22,South,170,0.0,2.0,91,0.00,,,0.00,meteohub,2013-02-22 10:27:00,
2013-02-22 02:32:00,43.9,41.2,30.21,South,170,1.0,2.0,90,0.00,,,0.00,meteohub,2013-02-22 10:32:00,
2013-02-22 02:37:00,43.9,40.8,30.21,South,170,2.0,2.0,89,0.00,,,0.00,meteohub,2013-02-22 10:37:00,
2013-02-22 02:42:00,43.9,40.8,30.21,South,170,1.0,2.0,89,0.00,,,0.00,meteohub,2013-02-22 10:42:00,
2013-02-22 02:47:00,43.9,40.6,30.20,South,170,0.0,2.0,88,0.00,,,0.00,meteohub,2013-02-22 10:47:00,
2013-02-22 02:52:00,44.2,41.0,30.20,South,170,1.0,2.0,88,0.00,,,0.00,meteohub,2013-02-22 10:52:00,
2013-02-22 02:57:00,44.4,40.5,30.20,South,170,0.0,2.0,86,0.00,,,0.00,meteohub,2013-02-22 10:57:00,
2013-02-22 03:02:00,44.4,40.5,30.21,South,170,0.0,2.0,86,0.00,,,0.00,meteohub,2013-02-22 11:02:00,
2013-02-22 03:07:00,44.4,40.5,30.21,South,170,0.0,2.0,86,0.00,,,0.00,meteohub,2013-02-22 11:07:00,
2013-02-22 03:12:00,44.6,40.6,30.21,South,170,1.0,2.0,86,0.00,,,0.00,meteohub,2013-02-22 11:12:00,
2013-02-22 03:17:00,45.0,40.6,30.21,South,170,0.0,2.0,85,0.00,,,0.00,meteohub,2013-02-22 11:17:00,
2013-02-22 03:22:00,44.8,40.5,30.21,South,170,0.0,2.0,85,0.00,,,0.00,meteohub,2013-02-22 11:22:00,
2013-02-22 03:27:00,45.0,40.6,30.21,South,170,0.0,2.0,85,0.00,,,0.00,meteohub,2013-02-22 11:27:00,
2013-02-22 03:32:00,45.0,40.5,30.21,South,170,0.0,2.0,84,0.00,,,0.00,meteohub,2013-02-22 11:32:00,
2013-02-22 03:37:00,45.0,40.5,30.21,South,170,1.0,2.0,84,0.00,,,0.00,meteohub,2013-02-22 11:37:00,
2013-02-22 03:42:00,44.8,40.3,30.21,South,170,0.0,2.0,84,0.00,,,0.00,meteohub,2013-02-22 11:42:00,
2013-02-22 03:47:00,45.1,40.6,30.21,South,170,0.0,2.0,84,0.00,,,0.00,meteohub,2013-02-22 11:47:00,
2013-02-22 03:52:00,45.0,40.5,30.21,South,170,1.0,2.0,84,0.00,,,0.00,meteohub,2013-02-22 11:52:00,
2013-02-22 03:57:00,45.1,40.6,30.21,South,170,0.0,1.0,84,0.00,,,0.00,meteohub,2013-02-22 11:57:00,
2013-02-22 04:02:00,45.0,40.5,30.22,South,170,0.0,2.0,84,0.00,,,0.00,meteohub,2013-02-22 12:02:00,
2013-02-22 04:07:00,45.0,40.1,30.22,South,170,0.0,2.0,83,0.00,,,0.00,meteohub,2013-02-22 12:07:00,
2013-02-22 04:12:00,45.0,40.1,30.22,South,170,0.0,2.0,83,0.00,,,0.00,meteohub,2013-02-22 12:12:00,
2013-02-22 04:17:00,44.2,39.7,30.22,South,170,0.0,1.0,84,0.00,,,0.00,meteohub,2013-02-22 12:17:00,
2013-02-22 04:22:00,44.2,40.1,30.22,South,170,0.0,1.0,85,0.00,,,0.00,meteohub,2013-02-22 12:22:00,
2013-02-22 04:27:00,44.1,39.6,30.22,South,170,1.0,2.0,84,0.00,,,0.00,meteohub,2013-02-22 12:27:00,
2013-02-22 04:32:00,43.7,39.6,30.22,South,170,2.0,2.0,85,0.00,,,0.00,meteohub,2013-02-22 12:32:00,
2013-02-22 04:37:00,43.7,39.7,30.22,South,170,2.0,3.0,86,0.00,,,0.00,meteohub,2013-02-22 12:37:00,
2013-02-22 04:42:00,44.2,40.1,30.22,South,170,0.0,3.0,85,0.00,,,0.00,meteohub,2013-02-22 12:42:00,
2013-02-22 04:47:00,44.2,40.1,30.22,South,170,1.0,3.0,85,0.00,,,0.00,meteohub,2013-02-22 12:47:00,
2013-02-22 04:52:00,44.6,40.5,30.21,South,170,0.0,3.0,85,0.00,,,0.00,meteohub,2013-02-22 12:52:00,
2013-02-22 04:57:00,44.4,40.3,30.22,South,170,0.0,3.0,85,0.00,,,0.00,meteohub,2013-02-22 12:57:00,
2013-02-22 05:02:00,44.2,40.1,30.22,South,170,0.0,3.0,85,0.00,,,0.00,meteohub,2013-02-22 13:02:00,
2013-02-22 05:07:00,44.2,40.3,30.22,South,170,0.0,2.0,86,0.00,,,0.00,meteohub,2013-02-22 13:07:00,
2013-02-22 05:12:00,44.4,40.5,30.22,South,170,0.0,1.0,86,0.00,,,0.00,meteohub,2013-02-22 13:12:00,
2013-02-22 05:17:00,44.8,40.5,30.23,South,170,0.0,1.0,85,0.00,,,0.00,meteohub,2013-02-22 13:17:00,
2013-02-22 05:22:00,45.0,40.5,30.23,South,170,0.0,0.0,84,0.00,,,0.00,meteohub,2013-02-22 13:22:00,
2013-02-22 05:27:00,45.1,40.3,30.22,South,170,0.0,0.0,83,0.00,,,0.00,meteohub,2013-02-22 13:27:00,
2013-02-22 05:32:00,45.3,40.5,30.22,South,170,0.0,0.0,83,0.00,,,0.00,meteohub,2013-02-22 13:32:00,
2013-02-22 05:38:00,44.4,39.6,30.23,South,170,0.0,0.0,83,0.00,,,0.00,meteohub,2013-02-22 13:38:00,
2013-02-22 05:43:00,44.2,39.7,30.24,South,170,0.0,0.0,84,0.00,,,0.00,meteohub,2013-02-22 13:43:00,
2013-02-22 05:48:00,45.1,40.6,30.24,WSW,241,0.0,0.0,84,0.00,,,0.00,meteohub,2013-02-22 13:48:00,
2013-02-22 05:53:00,45.1,39.9,30.24,WSW,241,0.0,3.0,82,0.00,,,0.00,meteohub,2013-02-22 13:53:00,
2013-02-22 05:58:00,45.0,40.1,30.24,WSW,241,0.0,3.0,83,0.00,,,0.00,meteohub,2013-02-22 13:58:00,
2013-02-22 06:03:00,45.0,40.1,30.25,WSW,241,0.0,3.0,83,0.00,,,0.00,meteohub,2013-02-22 14:03:00,
2013-02-22 06:08:00,45.0,40.5,30.25,WSW,241,0.0,1.0,84,0.00,,,0.00,meteohub,2013-02-22 14:08:00,
2013-02-22 06:13:00,45.0,40.5,30.25,WSW,241,0.0,1.0,84,0.00,,,0.00,meteohub,2013-02-22 14:13:00,
2013-02-22 06:18:00,44.6,40.1,30.25,WSW,241,1.0,0.0,84,0.00,,,0.00,meteohub,2013-02-22 14:18:00,
2013-02-22 06:23:00,44.1,40.1,30.25,WSW,241,0.0,2.0,86,0.00,,,0.00,meteohub,2013-02-22 14:23:00,
2013-02-22 06:28:00,44.1,40.1,30.24,WSW,241,0.0,2.0,86,0.00,,,0.00,meteohub,2013-02-22 14:28:00,
2013-02-22 06:33:00,44.2,40.6,30.25,WSW,241,0.0,2.0,87,0.00,,,0.00,meteohub,2013-02-22 14:33:00,
2013-02-22 06:38:00,44.4,40.5,30.25,WSW,241,0.0,1.0,86,0.00,,,0.00,meteohub,2013-02-22 14:38:00,
2013-02-22 06:43:00,44.4,40.3,30.25,WSW,241,0.0,1.0,85,0.00,,,0.00,meteohub,2013-02-22 14:43:00,
2013-02-22 06:48:00,44.4,39.9,30.25,WSW,241,0.0,0.0,84,0.00,,,0.00,meteohub,2013-02-22 14:48:00,
2013-02-22 06:53:00,44.6,40.5,30.25,WNW,290,0.0,1.0,85,0.00,,,0.00,meteohub,2013-02-22 14:53:00,
2013-02-22 06:58:00,44.6,40.1,30.24,WSW,253,3.0,3.0,84,0.00,,,0.00,meteohub,2013-02-22 14:58:00,
2013-02-22 07:03:00,44.4,40.3,30.25,SW,219,2.0,3.0,85,0.00,,,0.00,meteohub,2013-02-22 15:03:00,
2013-02-22 07:08:00,44.8,40.8,30.25,South,184,2.0,3.0,86,0.00,,,0.00,meteohub,2013-02-22 15:08:00,
2013-02-22 07:13:00,44.8,40.8,30.25,South,178,0.0,4.0,86,0.00,,,0.00,meteohub,2013-02-22 15:13:00,
2013-02-22 07:18:00,45.0,41.4,30.25,South,178,0.0,4.0,87,0.00,,,0.00,meteohub,2013-02-22 15:18:00,
2013-02-22 07:23:00,45.3,41.7,30.25,South,188,2.0,3.0,87,0.00,,,0.00,meteohub,2013-02-22 15:23:00,
2013-02-22 07:28:00,45.7,42.1,30.25,South,188,2.0,3.0,87,0.00,,,0.00,meteohub,2013-02-22 15:28:00,
2013-02-22 07:33:00,45.9,42.4,30.26,SSE,165,0.0,4.0,88,0.00,,,0.00,meteohub,2013-02-22 15:33:00,
2013-02-22 07:38:00,45.9,42.4,30.26,SSE,165,1.0,4.0,88,0.00,,,0.00,meteohub,2013-02-22 15:38:00,
2013-02-22 07:42:00,46.0,42.6,30.26,SSE,165,0.0,4.0,88,0.00,,,0.00,meteohub,2013-02-22 15:42:00,
2013-02-22 07:47:00,46.2,43.2,30.26,SSE,165,0.0,3.0,89,0.00,,,0.00,meteohub,2013-02-22 15:47:00,
2013-02-22 07:52:00,46.6,43.5,30.25,SE,138,2.0,3.0,89,0.00,,,0.00,meteohub,2013-02-22 15:52:00,
2013-02-22 07:57:00,46.9,43.9,30.26,South,180,1.0,3.0,89,0.00,,,0.00,meteohub,2013-02-22 15:57:00,
2013-02-22 08:02:00,46.8,43.7,30.26,SSW,193,2.0,4.0,89,0.00,,,0.00,meteohub,2013-02-22 16:02:00,
2013-02-22 08:07:00,46.8,43.7,30.26,SSW,198,2.0,5.0,89,0.00,,,0.00,meteohub,2013-02-22 16:07:00,
2013-02-22 08:12:00,46.9,43.9,30.26,SSE,168,2.0,6.0,89,0.00,,,0.00,meteohub,2013-02-22 16:12:00,
2013-02-22 08:17:00,47.3,44.2,30.26,South,170,1.0,6.0,89,0.00,,,0.00,meteohub,2013-02-22 16:17:00,
2013-02-22 08:22:00,47.7,44.2,30.27,South,173,0.0,5.0,88,0.00,,,0.00,meteohub,2013-02-22 16:22:00,
2013-02-22 08:27:00,47.8,44.4,30.27,South,173,0.0,4.0,88,0.00,,,0.00,meteohub,2013-02-22 16:27:00,
2013-02-22 08:32:00,47.8,44.2,30.27,South,173,0.0,3.0,87,0.00,,,0.00,meteohub,2013-02-22 16:32:00,
2013-02-22 08:37:00,48.6,44.6,30.27,South,173,0.0,3.0,86,0.00,,,0.00,meteohub,2013-02-22 16:37:00,
2013-02-22 08:42:00,48.9,44.6,30.27,South,173,0.0,3.0,85,0.00,,,0.00,meteohub,2013-02-22 16:42:00,
2013-02-22 08:47:00,49.1,44.2,30.28,NE,35,2.0,3.0,83,0.00,,,0.00,meteohub,2013-02-22 16:47:00,
2013-02-22 08:52:00,48.9,43.7,30.27,NE,35,0.0,3.0,82,0.00,,,0.00,meteohub,2013-02-22 16:52:00,
2013-02-22 08:57:00,49.5,44.6,30.27,NE,35,0.0,3.0,83,0.00,,,0.00,meteohub,2013-02-22 16:57:00,
2013-02-22 09:01:00,49.8,44.6,30.28,NNE,26,0.0,3.0,82,0.00,,,0.00,meteohub,2013-02-22 17:01:00,
2013-02-22 09:07:00,49.8,44.2,30.28,NNE,26,1.0,4.0,81,0.00,,,0.00,meteohub,2013-02-22 17:07:00,
2013-02-22 09:12:00,50.0,44.1,30.28,North,5,0.0,4.0,80,0.00,,,0.00,meteohub,2013-02-22 17:12:00,
2013-02-22 09:17:00,50.5,44.6,30.28,North,5,0.0,4.0,80,0.00,,,0.00,meteohub,2013-02-22 17:17:00,
2013-02-22 09:22:00,50.5,44.6,30.28,North,5,2.0,4.0,80,0.00,,,0.00,meteohub,2013-02-22 17:22:00,
2013-02-22 09:27:00,50.7,44.8,30.28,North,5,1.0,4.0,80,0.00,,,0.00,meteohub,2013-02-22 17:27:00,
2013-02-22 09:32:00,50.7,44.8,30.28,North,5,2.0,4.0,80,0.00,,,0.00,meteohub,2013-02-22 17:32:00,
2013-02-22 09:37:00,51.3,45.3,30.28,North,5,0.0,4.0,80,0.00,,,0.00,meteohub,2013-02-22 17:37:00,
2013-02-22 09:42:00,51.3,44.6,30.28,North,5,0.0,4.0,78,0.00,,,0.00,meteohub,2013-02-22 17:42:00,
2013-02-22 09:47:00,52.0,45.0,30.28,North,5,0.0,3.0,77,0.00,,,0.00,meteohub,2013-02-22 17:47:00,
2013-02-22 09:52:00,52.2,44.8,30.28,North,5,1.0,3.0,76,0.00,,,0.00,meteohub,2013-02-22 17:52:00,
2013-02-22 09:57:00,52.7,45.3,30.29,North,5,2.0,3.0,76,0.00,,,0.00,meteohub,2013-02-22 17:57:00,
2013-02-22 10:02:00,52.9,44.8,30.29,North,5,2.0,4.0,74,0.00,,,0.00,meteohub,2013-02-22 18:02:00,
2013-02-22 10:07:00,53.1,45.3,30.29,North,5,2.0,4.0,75,0.00,,,0.00,meteohub,2013-02-22 18:07:00,
2013-02-22 10:12:00,53.1,45.0,30.29,North,5,0.0,4.0,74,0.00,,,0.00,meteohub,2013-02-22 18:12:00,
2013-02-22 10:17:00,54.0,45.5,30.29,North,5,2.0,4.0,73,0.00,,,0.00,meteohub,2013-02-22 18:17:00,
2013-02-22 10:22:00,54.1,45.7,30.29,NNW,338,6.0,6.0,73,0.00,,,0.00,meteohub,2013-02-22 18:22:00,
2013-02-22 10:27:00,54.0,45.1,30.29,WNW,302,1.0,6.0,72,0.00,,,0.00,meteohub,2013-02-22 18:27:00,
2013-02-22 10:32:00,54.0,45.5,30.29,NE,44,1.0,6.0,73,0.00,,,0.00,meteohub,2013-02-22 18:32:00,
2013-02-22 10:37:00,54.3,45.5,30.29,NW,321,3.0,6.0,72,0.00,,,0.00,meteohub,2013-02-22 18:37:00,
2013-02-22 10:42:00,54.5,46.0,30.29,NW,317,4.0,4.0,73,0.00,,,0.00,meteohub,2013-02-22 18:42:00,
2013-02-22 10:47:00,54.1,46.4,30.29,NW,304,3.0,5.0,75,0.00,,,0.00,meteohub,2013-02-22 18:47:00,
2013-02-22 10:52:00,54.0,46.2,30.30,WNW,302,3.0,5.0,75,0.00,,,0.00,meteohub,2013-02-22 18:52:00,
2013-02-22 10:57:00,53.6,46.2,30.30,SSW,207,0.0,6.0,76,0.00,,,0.00,meteohub,2013-02-22 18:57:00,
2013-02-22 11:02:00,54.0,46.2,30.30,NW,321,3.0,6.0,75,0.00,,,0.00,meteohub,2013-02-22 19:02:00,
2013-02-22 11:07:00,54.3,46.2,30.30,WNW,287,3.0,6.0,74,0.00,,,0.00,meteohub,2013-02-22 19:07:00,
2013-02-22 11:12:00,54.1,45.7,30.30,WNW,297,3.0,5.0,73,0.00,,,0.00,meteohub,2013-02-22 19:12:00,
2013-02-22 11:17:00,54.0,45.9,30.29,WNW,296,0.0,6.0,74,0.00,,,0.00,meteohub,2013-02-22 19:17:00,
2013-02-22 11:22:00,54.0,45.9,30.29,WNW,291,2.0,6.0,74,0.00,,,0.00,meteohub,2013-02-22 19:22:00,
2013-02-22 11:27:00,54.7,46.2,30.29,WNW,298,3.0,6.0,73,0.00,,,0.00,meteohub,2013-02-22 19:27:00,
2013-02-22 11:32:00,54.1,45.3,30.29,NW,311,4.0,6.0,72,0.00,,,0.00,meteohub,2013-02-22 19:32:00,
2013-02-22 11:37:00,54.5,45.3,30.30,SW,231,1.0,7.0,71,0.00,,,0.00,meteohub,2013-02-22 19:37:00,
2013-02-22 11:42:00,54.0,43.7,30.29,NNW,338,1.0,7.0,68,0.00,,,0.00,meteohub,2013-02-22 19:42:00,
2013-02-22 11:47:00,54.1,42.6,30.29,NNW,336,4.0,8.0,65,0.00,,,0.00,meteohub,2013-02-22 19:47:00,
2013-02-22 11:52:00,54.3,42.4,30.29,WNW,292,2.0,8.0,64,0.00,,,0.00,meteohub,2013-02-22 19:52:00,
2013-02-22 11:57:00,54.9,41.7,30.29,WNW,298,0.0,8.0,61,0.00,,,0.00,meteohub,2013-02-22 19:57:00,
2013-02-22 12:02:00,55.0,41.9,30.29,South,184,4.0,7.0,61,0.00,,,0.00,meteohub,2013-02-22 20:02:00,
2013-02-22 12:07:00,54.5,43.0,30.30,SW,228,2.0,8.0,65,0.00,,,0.00,meteohub,2013-02-22 20:07:00,
2013-02-22 12:12:00,54.7,43.5,30.30,SW,219,3.0,8.0,66,0.00,,,0.00,meteohub,2013-02-22 20:12:00,
2013-02-22 12:17:00,53.8,43.5,30.29,NW,311,1.0,6.0,68,0.00,,,0.00,meteohub,2013-02-22 20:17:00,
2013-02-22 12:22:00,53.6,44.1,30.29,NNW,335,2.0,8.0,70,0.00,,,0.00,meteohub,2013-02-22 20:22:00,
2013-02-22 12:27:00,53.4,44.2,30.29,West,272,3.0,8.0,71,0.00,,,0.00,meteohub,2013-02-22 20:27:00,
2013-02-22 12:32:00,53.2,45.1,30.29,NW,323,4.0,7.0,74,0.00,,,0.00,meteohub,2013-02-22 20:32:00,
2013-02-22 12:37:00,53.4,43.9,30.29,NW,317,7.0,7.0,70,0.00,,,0.00,meteohub,2013-02-22 20:37:00,
2013-02-22 12:42:00,53.8,43.9,30.29,SSW,210,4.0,7.0,69,0.00,,,0.00,meteohub,2013-02-22 20:42:00,
2013-02-22 12:47:00,53.6,43.3,30.28,South,190,5.0,7.0,68,0.00,,,0.00,meteohub,2013-02-22 20:47:00,
2013-02-22 12:52:00,53.4,42.8,30.28,WNW,299,4.0,7.0,67,0.00,,,0.00,meteohub,2013-02-22 20:52:00,
2013-02-22 12:57:00,54.1,41.9,30.27,NNW,344,4.0,8.0,63,0.00,,,0.00,meteohub,2013-02-22 20:57:00,
2013-02-22 13:02:00,54.1,41.4,30.27,NNW,339,4.0,8.0,62,0.00,,,0.00,meteohub,2013-02-22 21:02:00,
2013-02-22 13:07:00,54.7,42.8,30.27,SSW,205,6.0,8.0,64,0.00,,,0.00,meteohub,2013-02-22 21:07:00,
2013-02-22 13:12:00,55.0,42.6,30.27,NW,314,5.0,6.0,63,0.00,,,0.00,meteohub,2013-02-22 21:12:00,
2013-02-22 13:17:00,55.0,42.6,30.27,WSW,251,1.0,7.0,63,0.00,,,0.00,meteohub,2013-02-22 21:17:00,
2013-02-22 13:22:00,54.7,41.9,30.27,NW,321,2.0,7.0,62,0.00,,,0.00,meteohub,2013-02-22 21:22:00,
2013-02-22 13:27:00,55.0,42.3,30.27,South,175,2.0,6.0,62,0.00,,,0.00,meteohub,2013-02-22 21:27:00,
2013-02-22 13:32:00,55.0,42.6,30.26,South,174,2.0,6.0,63,0.00,,,0.00,meteohub,2013-02-22 21:32:00,
2013-02-22 13:37:00,54.7,42.3,30.26,SSW,210,3.0,6.0,63,0.00,,,0.00,meteohub,2013-02-22 21:37:00,
2013-02-22 13:42:00,54.5,41.7,30.26,NNW,342,4.0,7.0,62,0.00,,,0.00,meteohub,2013-02-22 21:42:00,
2013-02-22 13:47:00,54.1,42.3,30.26,NW,313,3.0,8.0,64,0.00,,,0.00,meteohub,2013-02-22 21:47:00,
2013-02-22 13:52:00,54.1,42.6,30.25,South,189,2.0,8.0,65,0.00,,,0.00,meteohub,2013-02-22 21:52:00,
2013-02-22 13:57:00,53.4,42.8,30.25,ENE,63,1.0,10.0,67,0.00,,,0.00,meteohub,2013-02-22 21:57:00,
2013-02-22 14:02:00,53.8,42.6,30.25,NNE,32,8.0,10.0,66,0.00,,,0.00,meteohub,2013-02-22 22:02:00,
2013-02-22 14:07:00,53.2,42.6,30.25,NNE,31,1.0,11.0,67,0.00,,,0.00,meteohub,2013-02-22 22:07:00,
2013-02-22 14:12:00,53.2,43.0,30.25,WSW,240,5.0,11.0,68,0.00,,,0.00,meteohub,2013-02-22 22:12:00,
2013-02-22 14:17:00,52.9,43.7,30.25,NNW,338,5.0,11.0,71,0.00,,,0.00,meteohub,2013-02-22 22:17:00,
2013-02-22 14:22:00,52.7,44.6,30.25,NNW,347,4.0,10.0,74,0.00,,,0.00,meteohub,2013-02-22 22:22:00,
2013-02-22 14:27:00,52.3,43.9,30.25,South,179,3.0,10.0,73,0.00,,,0.00,meteohub,2013-02-22 22:27:00,
2013-02-22 14:32:00,52.2,44.4,30.25,NNE,27,5.0,10.0,75,0.00,,,0.00,meteohub,2013-02-22 22:32:00,
2013-02-22 14:37:00,52.2,44.8,30.24,North,0,7.0,11.0,76,0.00,,,0.00,meteohub,2013-02-22 22:37:00,
2013-02-22 14:42:00,52.3,44.6,30.25,West,275,3.0,13.0,75,0.00,,,0.00,meteohub,2013-02-22 22:42:00,
2013-02-22 14:47:00,52.0,44.2,30.25,NNW,334,11.0,13.0,75,0.00,,,0.00,meteohub,2013-02-22 22:47:00,
2013-02-22 14:52:00,51.4,44.1,30.25,North,355,3.0,13.0,76,0.00,,,0.00,meteohub,2013-02-22 22:52:00,
2013-02-22 14:57:00,52.9,45.1,30.25,West,269,2.0,14.0,75,0.00,,,0.00,meteohub,2013-02-22 22:57:00,
2013-02-22 15:02:00,52.2,44.4,30.25,NNW,345,7.0,14.0,75,0.00,,,0.00,meteohub,2013-02-22 23:02:00,
2013-02-22 15:07:00,52.2,44.4,30.24,NNE,16,3.0,14.0,75,0.00,,,0.00,meteohub,2013-02-22 23:07:00,
2013-02-22 15:12:00,52.2,44.8,30.24,NNE,30,2.0,14.0,76,0.00,,,0.00,meteohub,2013-02-22 23:12:00,
2013-02-22 15:17:00,52.2,44.8,30.24,NNW,330,5.0,13.0,76,0.00,,,0.00,meteohub,2013-02-22 23:17:00,
2013-02-22 15:22:00,51.8,44.8,30.25,North,0,5.0,13.0,77,0.00,,,0.00,meteohub,2013-02-22 23:22:00,
2013-02-22 15:27:00,51.4,44.4,30.25,North,5,6.0,13.0,77,0.00,,,0.00,meteohub,2013-02-22 23:27:00,
2013-02-22 15:32:00,51.3,44.6,30.25,NE,34,5.0,12.0,78,0.00,,,0.00,meteohub,2013-02-22 23:32:00,
2013-02-22 15:37:00,51.1,44.8,30.25,ENE,72,0.0,12.0,79,0.00,,,0.00,meteohub,2013-02-22 23:37:00,
2013-02-22 15:42:00,51.1,45.1,30.25,North,11,7.0,16.0,80,0.00,,,0.00,meteohub,2013-02-22 23:42:00,
2013-02-22 15:47:00,50.7,44.8,30.25,NNE,28,4.0,16.0,80,0.00,,,0.00,meteohub,2013-02-22 23:47:00,
2013-02-22 15:52:00,50.7,44.8,30.25,NNE,27,8.0,16.0,80,0.00,,,0.00,meteohub,2013-02-22 23:52:00,
2013-02-22 15:57:00,50.4,44.4,30.25,West,269,5.0,17.0,80,0.00,,,0.00,meteohub,2013-02-22 23:57:00,
2013-02-22 16:02:00,50.2,44.6,30.25,NNE,12,6.0,17.0,81,0.00,,,0.00,meteohub,2013-02-23 00:02:00,
2013-02-22 16:07:00,50.2,45.0,30.25,East,90,6.0,17.0,82,0.00,,,0.00,meteohub,2013-02-23 00:07:00,
2013-02-22 16:12:00,50.2,45.0,30.25,NW,313,3.0,20.0,82,0.00,,,0.00,meteohub,2013-02-23 00:12:00,
2013-02-22 16:17:00,50.4,45.3,30.24,NNE,28,5.0,20.0,83,0.00,,,0.00,meteohub,2013-02-23 00:17:00,
2013-02-22 16:22:00,50.0,45.0,30.24,NE,46,3.0,16.0,83,0.00,,,0.00,meteohub,2013-02-23 00:22:00,
2013-02-22 16:27:00,49.8,45.1,30.24,NNW,334,4.0,16.0,84,0.00,,,0.00,meteohub,2013-02-23 00:27:00,
2013-02-22 16:32:00,49.8,45.1,30.24,NNE,13,6.0,16.0,84,0.00,,,0.00,meteohub,2013-02-23 00:32:00,
2013-02-22 16:37:00,49.8,45.1,30.24,WNW,294,12.0,16.0,84,0.00,,,0.00,meteohub,2013-02-23 00:37:00,
2013-02-22 16:42:00,49.6,45.3,30.24,NW,311,4.0,17.0,85,0.00,,,0.00,meteohub,2013-02-23 00:42:00,
2013-02-22 16:47:00,49.6,45.3,30.24,NNE,13,8.0,17.0,85,0.00,,,0.00,meteohub,2013-02-23 00:47:00,
2013-02-22 16:52:00,49.5,45.5,30.24,NW,316,8.0,17.0,86,0.00,,,0.00,meteohub,2013-02-23 00:52:00,
2013-02-22 16:57:00,49.5,45.5,30.24,NW,325,6.0,15.0,86,0.00,,,0.00,meteohub,2013-02-23 00:57:00,
2013-02-22 17:02:00,49.3,45.3,30.24,WNW,300,7.0,15.0,86,0.00,,,0.00,meteohub,2013-02-23 01:02:00,
2013-02-22 17:07:00,49.3,45.3,30.25,NNE,26,8.0,15.0,86,0.00,,,0.00,meteohub,2013-02-23 01:07:00,
2013-02-22 17:12:00,49.1,45.1,30.24,NW,317,10.0,13.0,86,0.00,,,0.00,meteohub,2013-02-23 01:12:00,
2013-02-22 17:17:00,48.9,45.1,30.24,NNW,333,8.0,15.0,87,0.00,,,0.00,meteohub,2013-02-23 01:17:00,
2013-02-22 17:22:00,48.7,45.0,30.24,North,355,4.0,15.0,87,0.00,,,0.00,meteohub,2013-02-23 01:22:00,
2013-02-22 17:27:00,48.7,45.0,30.24,NW,323,7.0,12.0,87,0.00,,,0.00,meteohub,2013-02-23 01:27:00,
2013-02-22 17:32:00,48.7,45.3,30.24,SW,235,1.0,9.0,88,0.00,,,0.00,meteohub,2013-02-23 01:32:00,
2013-02-22 17:37:00,48.6,45.1,30.24,NNW,342,2.0,7.0,88,0.00,,,0.00,meteohub,2013-02-23 01:37:00,
2013-02-22 17:42:00,48.6,45.1,30.24,NW,315,3.0,7.0,88,0.00,,,0.00,meteohub,2013-02-23 01:42:00,
2013-02-22 17:47:00,48.6,45.5,30.24,WNW,283,1.0,10.0,89,0.00,,,0.00,meteohub,2013-02-23 01:47:00,
2013-02-22 17:52:00,48.4,45.3,30.24,North,0,5.0,10.0,89,0.00,,,0.00,meteohub,2013-02-23 01:52:00,
2013-02-22 17:57:00,48.4,45.3,30.24,NNW,346,6.0,10.0,89,0.00,,,0.00,meteohub,2013-02-23 01:57:00,
2013-02-22 18:02:00,48.0,45.0,30.24,North,351,1.0,10.0,89,0.00,,,0.00,meteohub,2013-02-23 02:02:00,
2013-02-22 18:07:00,48.0,45.0,30.24,NNE,19,3.0,10.0,89,0.00,,,0.00,meteohub,2013-02-23 02:07:00,
2013-02-22 18:12:00,48.0,45.0,30.24,NNW,346,1.0,10.0,89,0.00,,,0.00,meteohub,2013-02-23 02:12:00,
2013-02-22 18:17:00,48.0,45.1,30.24,NNW,332,3.0,9.0,90,0.00,,,0.00,meteohub,2013-02-23 02:17:00,
2013-02-22 18:22:00,47.8,45.0,30.23,South,183,4.0,10.0,90,0.00,,,0.00,meteohub,2013-02-23 02:22:00,
2013-02-22 18:27:00,47.8,45.0,30.23,SSW,207,11.0,11.0,90,0.00,,,0.00,meteohub,2013-02-23 02:27:00,
2013-02-22 18:32:00,47.7,45.0,30.24,SE,128,1.0,11.0,90,0.00,,,0.00,meteohub,2013-02-23 02:32:00,
2013-02-22 18:37:00,47.7,45.0,30.24,NNE,29,0.0,11.0,90,0.00,,,0.00,meteohub,2013-02-23 02:37:00,
2013-02-22 18:42:00,47.7,45.0,30.25,NE,42,2.0,11.0,90,0.00,,,0.00,meteohub,2013-02-23 02:42:00,
2013-02-22 18:47:00,47.8,45.0,30.25,NE,36,2.0,8.0,90,0.00,,,0.00,meteohub,2013-02-23 02:47:00,
2013-02-22 18:52:00,47.8,45.0,30.25,ENE,76,2.0,8.0,90,0.00,,,0.00,meteohub,2013-02-23 02:52:00,
2013-02-22 18:57:00,47.8,45.0,30.25,North,350,5.0,5.0,90,0.00,,,0.00,meteohub,2013-02-23 02:57:00,
2013-02-22 19:02:00,47.8,45.0,30.24,NE,45,1.0,12.0,90,0.00,,,0.00,meteohub,2013-02-23 03:02:00,
2013-02-22 19:07:00,47.7,45.0,30.25,North,5,6.0,15.0,90,0.00,,,0.00,meteohub,2013-02-23 03:07:00,
2013-02-22 19:12:00,47.7,45.0,30.25,NNW,336,6.0,15.0,90,0.00,,,0.00,meteohub,2013-02-23 03:12:00,
2013-02-22 19:17:00,47.7,45.0,30.25,NW,306,8.0,17.0,90,0.00,,,0.00,meteohub,2013-02-23 03:17:00,
2013-02-22 19:22:00,47.5,44.8,30.25,NW,318,0.0,17.0,90,0.00,,,0.00,meteohub,2013-02-23 03:22:00,
2013-02-22 19:27:00,47.5,44.8,30.25,WNW,303,4.0,17.0,90,0.00,,,0.00,meteohub,2013-02-23 03:27:00,
2013-02-22 19:32:00,47.5,44.8,30.25,North,350,4.0,14.0,90,0.00,,,0.00,meteohub,2013-02-23 03:32:00,
2013-02-22 19:37:00,47.5,44.8,30.25,NW,306,4.0,14.0,90,0.00,,,0.00,meteohub,2013-02-23 03:37:00,
2013-02-22 19:42:00,47.5,44.8,30.25,NW,319,5.0,14.0,90,0.00,,,0.00,meteohub,2013-02-23 03:42:00,
2013-02-22 19:47:00,47.5,44.8,30.25,North,355,8.0,14.0,90,0.00,,,0.00,meteohub,2013-02-23 03:47:00,
2013-02-22 19:52:00,47.5,44.8,30.25,NNW,340,7.0,14.0,90,0.00,,,0.00,meteohub,2013-02-23 03:52:00,
2013-02-22 19:57:00,47.5,44.8,30.25,North,350,2.0,14.0,90,0.00,,,0.00,meteohub,2013-02-23 03:57:00,
2013-02-22 20:02:00,47.5,45.0,30.25,NNW,335,9.0,12.0,91,0.00,,,0.00,meteohub,2013-02-23 04:02:00,
2013-02-22 20:07:00,47.5,45.0,30.25,NW,309,2.0,12.0,91,0.00,,,0.00,meteohub,2013-02-23 04:07:00,
2013-02-22 20:12:00,47.5,45.0,30.24,NW,319,7.0,11.0,91,0.00,,,0.00,meteohub,2013-02-23 04:12:00,
2013-02-22 20:17:00,47.5,45.0,30.24,NNW,332,4.0,10.0,91,0.00,,,0.00,meteohub,2013-02-23 04:17:00,
2013-02-22 20:22:00,47.5,45.0,30.24,WNW,293,3.0,10.0,91,0.00,,,0.00,meteohub,2013-02-23 04:22:00,
2013-02-22 20:27:00,47.5,45.0,30.24,NW,315,7.0,10.0,91,0.00,,,0.00,meteohub,2013-02-23 04:27:00,
2013-02-22 20:32:00,47.5,45.0,30.24,NNW,340,5.0,10.0,91,0.00,,,0.00,meteohub,2013-02-23 04:32:00,
2013-02-22 20:37:00,47.5,45.0,30.24,NW,325,5.0,10.0,91,0.00,,,0.00,meteohub,2013-02-23 04:37:00,
2013-02-22 20:42:00,47.5,45.0,30.24,NNW,336,3.0,13.0,91,0.00,,,0.00,meteohub,2013-02-23 04:42:00,
2013-02-22 20:47:00,47.5,45.0,30.24,North,5,3.0,13.0,91,0.00,,,0.00,meteohub,2013-02-23 04:47:00,
2013-02-22 20:52:00,47.5,45.0,30.25,NNW,335,6.0,13.0,91,0.00,,,0.00,meteohub,2013-02-23 04:52:00,
2013-02-22 20:57:00,47.5,45.3,30.25,NNW,333,4.0,10.0,92,0.00,,,0.00,meteohub,2013-02-23 04:57:00,
2013-02-22 21:00:00,47.5,45.0,30.25,NNW,329,4.0,10.0,91,0.00,,,0.00,meteohub,2013-02-23 05:00:00,
2013-02-22 21:05:00,47.5,45.0,30.25,WNW,288,2.0,10.0,91,0.00,,,0.00,meteohub,2013-02-23 05:05:00,
2013-02-22 21:10:00,47.5,45.3,30.26,NNE,27,7.0,12.0,92,0.00,,,0.00,meteohub,2013-02-23 05:10:00,
2013-02-22 21:15:00,47.5,45.3,30.26,North,0,4.0,20.0,92,0.00,,,0.00,meteohub,2013-02-23 05:15:00,
2013-02-22 21:20:00,47.5,45.3,30.27,WNW,302,3.0,20.0,92,0.00,,,0.00,meteohub,2013-02-23 05:20:00,
2013-02-22 21:25:00,47.3,45.1,30.27,NNW,347,3.0,16.0,92,0.00,,,0.00,meteohub,2013-02-23 05:25:00,
2013-02-22 21:30:00,47.3,45.1,30.27,NNW,329,8.0,15.0,92,0.00,,,0.00,meteohub,2013-02-23 05:30:00,
2013-02-22 21:36:00,47.3,45.1,30.27,North,350,3.0,15.0,92,0.00,,,0.00,meteohub,2013-02-23 05:36:00,
2013-02-22 21:41:00,47.3,45.1,30.27,North,5,4.0,15.0,92,0.00,,,0.00,meteohub,2013-02-23 05:41:00,
2013-02-22 21:46:00,47.5,45.3,30.27,West,271,9.0,14.0,92,0.00,,,0.00,meteohub,2013-02-23 05:46:00,
2013-02-22 21:51:00,47.5,45.3,30.27,NE,38,5.0,16.0,92,0.00,,,0.00,meteohub,2013-02-23 05:51:00,
2013-02-22 21:56:00,47.5,45.3,30.27,NNW,338,4.0,18.0,92,0.00,,,0.00,meteohub,2013-02-23 05:56:00,
2013-02-22 22:01:00,47.5,45.3,30.27,NNW,348,14.0,18.0,92,0.00,,,0.00,meteohub,2013-02-23 06:01:00,
2013-02-22 22:06:00,47.7,45.5,30.27,NNW,344,10.0,18.0,92,0.00,,,0.00,meteohub,2013-02-23 06:06:00,
2013-02-22 22:11:00,47.7,45.5,30.27,NE,34,3.0,16.0,92,0.00,,,0.00,meteohub,2013-02-23 06:11:00,
2013-02-22 22:16:00,47.7,45.5,30.27,NW,319,3.0,16.0,92,0.00,,,0.00,meteohub,2013-02-23 06:16:00,
2013-02-22 22:21:00,47.7,45.5,30.27,NW,323,4.0,15.0,92,0.00,,,0.00,meteohub,2013-02-23 06:21:00,
2013-02-22 22:26:00,47.7,45.5,30.27,North,349,15.0,15.0,92,0.00,,,0.00,meteohub,2013-02-23 06:26:00,
2013-02-22 22:31:00,47.7,45.5,30.28,NNW,346,9.0,17.0,92,0.00,,,0.00,meteohub,2013-02-23 06:31:00,
2013-02-22 22:36:00,47.7,45.5,30.28,WNW,285,2.0,17.0,92,0.00,,,0.00,meteohub,2013-02-23 06:36:00,
2013-02-22 22:41:00,47.7,45.5,30.29,NW,309,8.0,13.0,92,0.00,,,0.00,meteohub,2013-02-23 06:41:00,
2013-02-22 22:46:00,47.7,45.5,30.29,West,263,3.0,13.0,92,0.00,,,0.00,meteohub,2013-02-23 06:46:00,
2013-02-22 22:51:00,47.7,45.5,30.28,NE,38,7.0,12.0,92,0.00,,,0.00,meteohub,2013-02-23 06:51:00,
2013-02-22 22:56:00,47.7,45.5,30.28,NNW,338,5.0,14.0,92,0.00,,,0.00,meteohub,2013-02-23 06:56:00,
2013-02-22 23:01:00,47.7,45.5,30.28,NNW,344,4.0,14.0,92,0.00,,,0.00,meteohub,2013-02-23 07:01:00,
2013-02-22 23:06:00,47.7,45.1,30.29,North,355,5.0,14.0,91,0.00,,,0.00,meteohub,2013-02-23 07:06:00,
2013-02-22 23:11:00,47.5,45.0,30.29,NW,306,2.0,12.0,91,0.00,,,0.00,meteohub,2013-02-23 07:11:00,
2013-02-22 23:16:00,47.5,45.0,30.28,WNW,297,4.0,12.0,91,0.00,,,0.00,meteohub,2013-02-23 07:16:00,
2013-02-22 23:21:00,47.5,45.3,30.28,NNW,339,4.0,12.0,92,0.00,,,0.00,meteohub,2013-02-23 07:21:00,
2013-02-22 23:26:00,47.5,45.3,30.28,WNW,301,5.0,10.0,92,0.00,,,0.00,meteohub,2013-02-23 07:26:00,
2013-02-22 23:31:00,47.5,45.3,30.29,WNW,303,4.0,10.0,92,0.00,,,0.00,meteohub,2013-02-23 07:31:00,
2013-02-22 23:36:00,47.5,45.0,30.29,WNW,298,4.0,10.0,91,0.00,,,0.00,meteohub,2013-02-23 07:36:00,
2013-02-22 23:41:00,47.7,45.1,30.28,North,355,3.0,8.0,91,0.00,,,0.00,meteohub,2013-02-23 07:41:00,
2013-02-22 23:46:00,47.7,45.1,30.28,NNW,342,2.0,8.0,91,0.00,,,0.00,meteohub,2013-02-23 07:46:00,
2013-02-22 23:51:00,47.7,45.1,30.28,NW,315,3.0,10.0,91,0.00,,,0.00,meteohub,2013-02-23 07:51:00,
2013-02-22 23:57:00,47.7,45.0,30.28,North,5,10.0,10.0,90,0.00,,,0.00,meteohub,2013-02-23 07:57:00,